This is the latest recevied weather packets stored in our database for station/object DB0FN-10. If no packets are shown the sender has not sent any weather packets the latest 10 day(s).
| Time | Temp. | Humidity | Pressure | Rain* | Wind** | Luminosity | Snow |
|---|---|---|---|---|---|---|---|
| 1777428047 | 15° C | 37% | 1019.8 hPa | - | - | - | - |
| 1777427147 | 15° C | 37% | 1019.6 hPa | - | - | - | - |
| 1777426247 | 15° C | 36% | 1019.8 hPa | - | - | - | - |
| 1777425347 | 15.56° C | 36% | 1019.7 hPa | - | - | - | - |
| 1777424447 | 15.56° C | 35% | 1019.7 hPa | - | - | - | - |
| 1777423547 | 15.56° C | 35% | 1019.8 hPa | - | - | - | - |
| 1777422647 | 15.56° C | 35% | 1020 hPa | - | - | - | - |
| 1777421747 | 16.11° C | 35% | 1020.1 hPa | - | - | - | - |
| 1777420847 | 16.11° C | 34% | 1020.2 hPa | - | - | - | - |
| 1777419946 | 16.67° C | 34% | 1020.2 hPa | - | - | - | - |
| 1777419046 | 16.67° C | 34% | 1020.2 hPa | - | - | - | - |
| 1777418146 | 17.22° C | 34% | 1020.5 hPa | - | - | - | - |
| 1777417246 | 17.78° C | 33% | 1020.6 hPa | - | - | - | - |
| 1777416346 | 18.33° C | 32% | 1020.7 hPa | - | - | - | - |
| 1777415446 | 18.33° C | 32% | 1020.7 hPa | - | - | - | - |
| 1777414546 | 18.33° C | 31% | 1020.7 hPa | - | - | - | - |
| 1777413646 | 19.44° C | 30% | 1020.7 hPa | - | - | - | - |
| 1777412746 | 19.44° C | 29% | 1020.7 hPa | - | - | - | - |
| 1777411846 | 19.44° C | 29% | 1020.7 hPa | - | - | - | - |
| 1777410946 | 20° C | 28% | 1020.6 hPa | - | - | - | - |
| 1777410046 | 20° C | 27% | 1020.6 hPa | - | - | - | - |
| 1777409146 | 20° C | 28% | 1020.7 hPa | - | - | - | - |
| 1777408246 | 20° C | 27% | 1020.7 hPa | - | - | - | - |
| 1777407345 | 20.56° C | 27% | 1020.7 hPa | - | - | - | - |
| 1777406445 | 20.56° C | 27% | 1020.7 hPa | - | - | - | - |
* Rain since midnight (hover to see other rain measurements)
** Current wind speed in m/s (hover to see current wind gust speed)